Location: Newark
(10.3333°N, 37.7167°E)
Time: 05:46:17
(UTC+00:00)

STARLINK-1077 - Pass Details

Date: 04 February 2020
Orbit: 348 x 351 km, 53.0° (Epoch: 19 February)

Event Time Altitude Azimuth Distance (km) Brightness Sun altitude
Rises 17:10:25 0° 316° (NW) 2,163 7.1 -23.7°
Reaches altitude 10° 17:12:30 10° 308° (NW) 1,320 6.0 -24.2°
Enters shadow 17:13:30 19° 299° (WNW) 938 5.3 -24.4°
